^^
Station Historical Data
 
Daily Summary for February 26, 2018 Units:  Metric    English   Both
« Previous Day
Next Day »
Daily Weekly Monthly Yearly Custom
  Current: High: Low: Average:
Temperature: -15.2 °C -17.8 °C -15.2 °C -14.9 °C
Dew Point: -16.4 °C -17.8 °C -16.6 °C -16.4 °C
Humidity: 86% Humidity% 81% 82%
Wind Speed: 46.7km/h 0km/h 44.1km/h 50.4km/h
Wind Gust: 75.2km/h 0km/h - -
WindNE - - NE
Pressure: 34049.6 hPa 0 hPa 34049.6 hPa -
Precipitation: 25.4 mm      
Historical Graphs
 
 
Tabular Data for February 26, 2018
Time Temperature Dew Point Pressure Wind Wind Speed Wind Gust Humidity Rainfall Rate (Hourly) solar Conditions
-17.8 °C -17.8 °C 0 hPa Calm     Humidity% 0 mm SolarRadiationWatts/m^2 W/m2 Conditions
00:03 -14.8 °C -16.3 °C 34188.4 hPa NE 51.8 km/h 72.6 km/h 83% 7.62 mm 0 W/m2
00:08 -14.8 °C -16.2 °C 34188.4 hPa NE 51.8 km/h 80.3 km/h 83% 7.62 mm 0 W/m2
00:13 -14.8 °C -16.2 °C 34188.4 hPa NE 46.7 km/h 80.3 km/h 83% 7.62 mm 0 W/m2
00:18 -14.8 °C -16.2 °C 34188.4 hPa NE 44.1 km/h 69.8 km/h 83% 7.62 mm 0 W/m2
00:23 -14.8 °C -16.3 °C 34188.4 hPa NE 49.2 km/h 75.2 km/h 83% 0 mm 0 W/m2
00:28 -14.8 °C -16.3 °C 34178.3 hPa NE 54.4 km/h 75.2 km/h 83% 0 mm 0 W/m2
00:33 -14.8 °C -16.3 °C 34178.3 hPa NE 49.2 km/h 75.2 km/h 83% 0 mm 0 W/m2
00:38 -14.8 °C -16.3 °C 34178.3 hPa NE 46.7 km/h 72.6 km/h 83% 0 mm 0 W/m2
00:43 -14.8 °C -16.2 °C 34164.7 hPa NE 46.7 km/h 72.6 km/h 84% 0 mm 0 W/m2
00:48 -14.8 °C -16.3 °C 34164.7 hPa NE 44.1 km/h 77.7 km/h 83% 0 mm 0 W/m2
00:53 -14.9 °C -16.3 °C 34164.7 hPa NE 46.7 km/h 77.7 km/h 84% 0 mm 0 W/m2
00:58 -14.8 °C -16.2 °C 34154.6 hPa NE 49.2 km/h 72.6 km/h 84% 0 mm 0 W/m2
01:03 -14.8 °C -16.2 °C 34154.6 hPa NE 49.2 km/h 72.6 km/h 84% 0 mm 0 W/m2
01:08 -14.9 °C -16.3 °C 34164.7 hPa NE 51.8 km/h 77.7 km/h 84% 0 mm 0 W/m2
01:13 -14.8 °C -16.2 °C 34154.6 hPa NE 51.8 km/h 80.3 km/h 84% 0 mm 0 W/m2
01:18 -14.8 °C -16.3 °C 34154.6 hPa NE 51.8 km/h 80.3 km/h 83% 0 mm 0 W/m2
01:23 -14.8 °C -16.2 °C 34154.6 hPa NE 54.4 km/h 80.3 km/h 84% 0 mm 0 W/m2
01:28 -14.9 °C -16.3 °C 34154.6 hPa NE 54.4 km/h 80.3 km/h 84% 0 mm 0 W/m2
01:33 -14.9 °C -16.3 °C 34144.4 hPa NE 46.7 km/h 77.7 km/h 84% 0 mm 0 W/m2
01:38 -14.9 °C -16.3 °C 34144.4 hPa NE 46.7 km/h 75.2 km/h 84% 0 mm 0 W/m2
01:43 -14.8 °C -16.2 °C 34144.4 hPa NE 49.2 km/h 72.6 km/h 84% 0 mm 0 W/m2
01:48 -14.9 °C -16.3 °C 34144.4 hPa NE 49.2 km/h 77.7 km/h 84% 0 mm 0 W/m2
01:53 -14.8 °C -16.2 °C 34144.4 hPa NE 49.2 km/h 77.7 km/h 84% 0 mm 0 W/m2
01:58 -14.9 °C -16.3 °C 34130.9 hPa NE 54.4 km/h 82.9 km/h 84% 0 mm 0 W/m2
02:03 -14.8 °C -16.2 °C 34130.9 hPa NE 57 km/h 82.9 km/h 84% 0 mm 0 W/m2
02:08 -14.9 °C -16.3 °C 34130.9 hPa NE 54.4 km/h 80.3 km/h 84% 0 mm 0 W/m2
02:13 -14.8 °C -16.2 °C 34130.9 hPa NE 49.2 km/h 85.5 km/h 84% 0 mm 0 W/m2
02:18 -14.8 °C -16.2 °C 34130.9 hPa NE 49.2 km/h 85.5 km/h 84% 0 mm 0 W/m2
02:23 -14.9 °C -16.3 °C 34120.7 hPa NE 49.2 km/h 80.3 km/h 83% 0 mm 0 W/m2
02:28 -14.8 °C -16.3 °C 34120.7 hPa NE 51.8 km/h 80.3 km/h 83% 0 mm 0 W/m2
02:33 -14.8 °C -16.3 °C 34120.7 hPa NE 51.8 km/h 77.7 km/h 83% 0 mm 0 W/m2
02:38 -14.8 °C -16.3 °C 34120.7 hPa NE 51.8 km/h 77.7 km/h 83% 0 mm 0 W/m2
02:43 -14.8 °C -16.4 °C 34120.7 hPa NE 49.2 km/h 72.6 km/h 82% 0 mm 0 W/m2
02:48 -14.8 °C -16.3 °C 34107.2 hPa NE 49.2 km/h 77.7 km/h 82% 0 mm 0 W/m2
02:54 -14.8 °C -16.4 °C 34107.2 hPa NE 54.4 km/h 77.7 km/h 82% 0 mm 0 W/m2
02:59 -14.8 °C -16.3 °C 34107.2 hPa NE 54.4 km/h 85.5 km/h 82% 0 mm 0 W/m2
03:04 -14.8 °C -16.4 °C 34097 hPa NE 49.2 km/h 85.5 km/h 82% 0 mm 0 W/m2
03:09 -14.9 °C -16.4 °C 34097 hPa NE 49.2 km/h 80.3 km/h 82% 0 mm 0 W/m2
03:14 -14.8 °C -16.4 °C 34097 hPa NE 51.8 km/h 80.3 km/h 82% 0 mm 0 W/m2
03:19 -14.8 °C -16.4 °C 34097 hPa NE 49.2 km/h 80.3 km/h 82% 0 mm 0 W/m2
03:24 -14.8 °C -16.3 °C 34086.9 hPa NE 46.7 km/h 72.6 km/h 82% 0 mm 0 W/m2
03:29 -14.8 °C -16.3 °C 34086.9 hPa NE 46.7 km/h 75.2 km/h 82% 0 mm 0 W/m2
03:34 -14.8 °C -16.5 °C 34086.9 hPa NE 46.7 km/h 75.2 km/h 81% 0 mm 0 W/m2
03:39 -14.8 °C -16.5 °C 34086.9 hPa NE 49.2 km/h 75.2 km/h 81% 0 mm 0 W/m2
03:44 -14.9 °C -16.6 °C 34086.9 hPa NE 49.2 km/h 75.2 km/h 81% 0 mm 0 W/m2
03:49 -14.9 °C -16.6 °C 34073.3 hPa NE 49.2 km/h 72.6 km/h 81% 7.62 mm 0 W/m2
03:54 -14.8 °C -16.5 °C 34086.9 hPa NE 54.4 km/h 77.7 km/h 81% 7.62 mm 0 W/m2
03:59 -14.9 °C -16.6 °C 34086.9 hPa NE 57 km/h 80.3 km/h 81% 7.62 mm 0 W/m2
04:04 -14.9 °C -16.6 °C 34073.3 hPa NE 54.4 km/h 80.3 km/h 81% 7.62 mm 0 W/m2
04:09 -14.9 °C -16.6 °C 34073.3 hPa NE 59.5 km/h 85.5 km/h 81% 7.62 mm 0 W/m2
04:14 -14.9 °C -16.5 °C 34073.3 hPa NE 59.5 km/h 85.5 km/h 82% 7.62 mm 0 W/m2
04:19 -14.9 °C -16.5 °C 34073.3 hPa NE 51.8 km/h 82.9 km/h 82% 7.62 mm 0 W/m2
04:24 -14.9 °C -16.4 °C 34073.3 hPa NE 54.4 km/h 82.9 km/h 83% 7.62 mm 0 W/m2
04:29 -15.1 °C -16.5 °C 34073.3 hPa NE 51.8 km/h 82.9 km/h 83% 12.7 mm 0 W/m2
04:34 -15.1 °C -16.6 °C 34073.3 hPa NE 57 km/h 82.9 km/h 83% 12.7 mm 0 W/m2
04:39 -15.1 °C -16.4 °C 34063.2 hPa NE 59.5 km/h 82.9 km/h 84% 12.7 mm 0 W/m2
04:44 -15.1 °C -16.4 °C 34063.2 hPa NE 54.4 km/h 80.3 km/h 84% 7.62 mm 0 W/m2
04:49 -15.1 °C -16.5 °C 34063.2 hPa NE 57 km/h 80.3 km/h 84% 12.7 mm 0 W/m2
04:54 -15.2 °C -16.4 °C 34063.2 hPa NE 51.8 km/h 80.3 km/h 85% 12.7 mm 0 W/m2
04:59 -15.2 °C -16.5 °C 34049.6 hPa NE 49.2 km/h 82.9 km/h 85% 12.7 mm 0 W/m2
05:04 -15.2 °C -16.5 °C 34049.6 hPa NE 49.2 km/h 82.9 km/h 85% 12.7 mm 0 W/m2
05:14 -15.2 °C -16.4 °C 34049.6 hPa NE 54.4 km/h 82.9 km/h 86% 12.7 mm 0 W/m2
05:19 -15.2 °C -16.4 °C 34049.6 hPa NE 51.8 km/h 82.9 km/h 86% 20.32 mm 0 W/m2
05:24 -15.2 °C -16.4 °C 34049.6 hPa NE 46.7 km/h 75.2 km/h 86% 12.7 mm 0 W/m2
Asprovalta, Central Macedonia, GREECE
Compliments of Weather Underground - 1.75 mb